TimeEDT,TemperatureF,Dew PointF,Humidity,Sea Level PressureIn,VisibilityMPH,Wind Direction,Wind SpeedMPH,Gust SpeedMPH,PrecipitationIn,Events,Conditions,WindDirDegrees,DateUTC
12:58 AM,67.1,60.1,78,29.65,10.0,West,4.6,-,N/A,,Clear,270,2013-06-29 04:58:00
1:58 AM,66.2,59.4,79,29.64,10.0,West,5.8,-,N/A,,Clear,270,2013-06-29 05:58:00
2:58 AM,66.2,60.4,82,29.63,10.0,West,5.8,-,N/A,,Overcast,260,2013-06-29 06:58:00
3:58 AM,65.8,61.0,84,29.62,10.0,WSW,2.3,-,N/A,,Scattered Clouds,250,2013-06-29 07:58:00
4:58 AM,64.2,60.1,86,29.62,10.0,WSW,2.3,-,N/A,,Partly Cloudy,250,2013-06-29 08:58:00
5:58 AM,64.6,59.7,84,29.63,10.0,SW,3.5,-,N/A,,Clear,220,2013-06-29 09:58:00
6:58 AM,63.3,60.1,89,29.64,10.0,South,3.5,-,N/A,,Clear,190,2013-06-29 10:58:00
7:58 AM,69.3,62.2,78,29.64,10.0,WSW,3.5,-,N/A,,Clear,240,2013-06-29 11:58:00
8:58 AM,72.5,63.0,72,29.64,10.0,WSW,4.6,-,N/A,,Clear,240,2013-06-29 12:58:00
9:58 AM,75.0,63.3,67,29.64,10.0,WSW,8.1,-,N/A,,Clear,250,2013-06-29 13:58:00
10:58 AM,77.9,64.8,64,29.63,10.0,West,8.1,-,N/A,,Partly Cloudy,280,2013-06-29 14:58:00
11:58 AM,78.1,63.5,61,29.64,10.0,West,10.4,-,N/A,,Scattered Clouds,270,2013-06-29 15:58:00
12:58 PM,78.8,64.2,61,29.64,10.0,WSW,11.5,-,N/A,,Scattered Clouds,240,2013-06-29 16:58:00
1:58 PM,79.2,62.4,56,29.63,10.0,SW,10.4,-,N/A,,Mostly Cloudy,220,2013-06-29 17:58:00
2:58 PM,80.4,63.3,56,29.61,10.0,West,9.2,-,N/A,,Scattered Clouds,260,2013-06-29 18:58:00
3:58 PM,82.6,63.7,53,29.61,10.0,WSW,13.8,19.6,N/A,,Partly Cloudy,250,2013-06-29 19:58:00
4:58 PM,81.7,63.3,54,29.61,10.0,West,11.5,-,N/A,,Partly Cloudy,260,2013-06-29 20:58:00
5:58 PM,80.1,63.7,57,29.60,10.0,WSW,9.2,-,N/A,,Scattered Clouds,240,2013-06-29 21:58:00
6:16 PM,78.8,64.4,61,29.61,10.0,SW,8.1,-,N/A,,Light Drizzle,230,2013-06-29 22:16:00
6:25 PM,78.8,64.4,61,29.61,10.0,WSW,10.4,-,N/A,,Mostly Cloudy,240,2013-06-29 22:25:00
6:58 PM,78.6,64.8,62,29.60,10.0,WSW,9.2,-,0.00,,Mostly Cloudy,240,2013-06-29 22:58:00
7:58 PM,77.0,63.1,62,29.61,10.0,WSW,4.6,-,N/A,,Mostly Cloudy,250,2013-06-29 23:58:00
8:41 PM,71.6,64.4,78,29.65,7.0,North,17.3,20.7,N/A,Thunderstorm,Thunderstorm,360,2013-06-30 00:41:00
8:58 PM,71.2,62.4,74,29.65,7.0,North,23.0,31.1,N/A,Thunderstorm,Thunderstorm,350,2013-06-30 00:58:00
9:04 PM,69.8,60.8,73,29.69,6.0,WNW,17.3,29.9,N/A,Rain-Thunderstorm,Light Thunderstorms and Rain,290,2013-06-30 01:04:00
9:07 PM,69.8,59.0,68,29.70,1.0,West,15.0,21.9,N/A,Rain-Thunderstorm,Thunderstorms and Rain,280,2013-06-30 01:07:00
9:18 PM,64.4,60.8,88,29.67,5.0,North,8.1,-,N/A,Rain-Thunderstorm,Light Thunderstorms and Rain,350,2013-06-30 01:18:00
9:25 PM,62.6,59.0,88,29.68,7.0,ENE,5.8,-,N/A,Thunderstorm,Thunderstorm,70,2013-06-30 01:25:00
9:43 PM,62.6,60.8,94,29.66,10.0,SE,3.5,-,N/A,,Overcast,130,2013-06-30 01:43:00
9:58 PM,63.3,60.4,90,29.67,10.0,East,2.3,-,0.28,,Mostly Cloudy,100,2013-06-30 01:58:00
10:58 PM,63.0,61.2,94,29.65,10.0,South,2.3,-,0.00,,Partly Cloudy,180,2013-06-30 02:58:00
11:58 PM,61.5,61.0,98,29.67,10.0,NW,4.6,-,N/A,,Overcast,310,2013-06-30 03:58:00